This is the latest recevied weather packets stored in our database for station/object KD2RHT-13. If no packets are shown the sender has not sent any weather packets the latest 1 day(s).
| Time | Temp. | Humidity | Pressure | Rain* | Wind** | Luminosity | Snow |
|---|---|---|---|---|---|---|---|
| 1777991410 | 23.33° C | 59% | 1005 hPa | 0 mm | 2.24 m/s, 281° | 656 W/m² | - |
| 1777991108 | 23.33° C | 59% | 1005 hPa | 0 mm | 3.13 m/s, 205° | 533 W/m² | - |
| 1777990805 | 23.33° C | 61% | 1005 hPa | 0 mm | 0.45 m/s, 164° | 561 W/m² | - |
| 1777990502 | 23.33° C | 60% | 1005 hPa | 0 mm | 2.24 m/s, 166° | 485 W/m² | - |
| 1777990199 | 22.78° C | 61% | 1005.3 hPa | 0 mm | 2.68 m/s, 171° | 592 W/m² | - |
| 1777989895 | 22.78° C | 60% | 1005.6 hPa | 0 mm | 4.02 m/s, 215° | 603 W/m² | - |
| 1777989592 | 22.78° C | 60% | 1005.3 hPa | 0 mm | 1.34 m/s, 191° | 536 W/m² | - |
| 1777989289 | 22.78° C | 61% | 1005.6 hPa | 0 mm | 3.13 m/s, 48° | 570 W/m² | - |
| 1777988985 | 22.78° C | 61% | 1005.3 hPa | 0 mm | 2.24 m/s, 194° | 551 W/m² | - |
| 1777988682 | 22.22° C | 63% | 1005.3 hPa | 0 mm | 0.89 m/s, 167° | 518 W/m² | - |
| 1777988378 | 21.67° C | 62% | 1005.3 hPa | 0 mm | 2.24 m/s, 246° | 495 W/m² | - |
| 1777988076 | 21.67° C | 63% | 1005.3 hPa | 0 mm | 2.24 m/s, 226° | 218 W/m² | - |
| 1777987772 | 21.67° C | 63% | 1005.3 hPa | 0 mm | 1.34 m/s, 224° | 186 W/m² | - |
| 1777987468 | 21.67° C | 62% | 1005.3 hPa | 0 mm | 2.68 m/s, 212° | 461 W/m² | - |
| 1777987165 | 21.67° C | 62% | 1005 hPa | 0 mm | 4.02 m/s, 203° | 284 W/m² | - |
| 1777986862 | 21.67° C | 62% | 1005.3 hPa | 0 mm | 3.13 m/s, 98° | 318 W/m² | - |
| 1777986561 | 21.67° C | 63% | 1005.3 hPa | 0 mm | 1.79 m/s, 182° | 238 W/m² | - |
| 1777986259 | 21.67° C | 63% | 1005.3 hPa | 0 mm | 0.89 m/s, 117° | 550 W/m² | - |
| 1777985956 | 21.11° C | 63% | 1005.3 hPa | 0 mm | 2.68 m/s, 208° | 194 W/m² | - |
| 1777985653 | 21.11° C | 64% | 1005.3 hPa | 0 mm | 1.34 m/s, 92° | 150 W/m² | - |
| 1777985349 | 21.11° C | 64% | 1005.6 hPa | 0 mm | 2.24 m/s, 181° | 291 W/m² | - |
| 1777985046 | 21.11° C | 64% | 1005.3 hPa | 0 mm | 1.34 m/s, 224° | 189 W/m² | - |
| 1777984742 | 21.11° C | 64% | 1005.6 hPa | 0 mm | 2.24 m/s, 202° | 277 W/m² | - |
| 1777984439 | 21.11° C | 64% | 1005.6 hPa | 0 mm | 1.34 m/s, 176° | 282 W/m² | - |
| 1777984134 | 21.11° C | 65% | 1005.3 hPa | 0 mm | 2.24 m/s, 66° | 339 W/m² | - |
* Rain latest hour (hover to see other rain measurements)
** Current wind speed in m/s (hover to see current wind gust speed)